This demonstration page uses our WeatherBlox Daily Observations layout. Learn more.

Left ArrowRight Arrow

41.12389, -100.76542

Hourly Observations for March 9, 2020

Temp ( °F °C ) Dew Point ( °F °C ) Humidity (%) Winds ( mph kmh ) Pressure ( in mb ) Visibility ( mi km ) Precip ( " mm )
12:53 am 00:53 Cloudy 39 3.9 31 -0.6 73 73 NE 22 35 29.93 1014 10 16 0.00 0.00
1:11 am 01:11 Cloudy with Light Rain 38 3.3 30 -1.1 73 73 NE 22 35 30.04 1017 10 16 0.00 0.00
1:53 am 01:53 Cloudy with Rain 36 2.2 31 -0.6 82 82 VRB 6 9 29.97 1015 8 13 0.04 1.02
2:15 am 02:15 Cloudy with Rain 36 2.2 31 -0.6 82 82 NNE 16 26 30.03 1017 6 10 0.05 1.27
2:25 am 02:25 Cloudy with Heavy Rain 35 1.7 31 -0.6 85 85 NE 16 26 30.02 1017 5 8 0.09 2.29
2:53 am 02:53 Cloudy with Light Rain 36 2.2 31 -0.6 82 82 NE 25 41 29.87 1012 10 16 0.13 3.30
3:39 am 03:39 Cloudy with Light Rain 35 1.7 31 -0.6 85 85 N 5 7 30.06 1018 10 16 0.04 1.02
3:53 am 03:53 Cloudy with Light Rain 35 1.7 30 -1.1 82 82 NNE 12 19 29.96 1015 10 16 0.04 1.02
4:34 am 04:34 Cloudy with Light Rain 35 1.7 31 -0.6 85 85 NNE 10 17 30.06 1018 10 16 0.03 0.76
4:43 am 04:43 Cloudy with Light Rain 35 1.7 31 -0.6 85 85 NNE 14 22 30.05 1018 10 16 0.03 0.76
4:53 am 04:53 Cloudy with Light Rain 35 1.7 30 -1.1 82 82 NE 13 20 29.95 1014 10 16 0.03 0.76
5:53 am 05:53 Cloudy with Light Rain 35 1.7 30 -1.1 82 82 NNE 15 24 29.95 1014 10 16 0.03 0.76
6:25 am 06:25 Cloudy 35 1.7 30 -1.1 82 82 NNE 12 19 30.07 1018 10 16 0.00 0.00
6:53 am 06:53 Cloudy with Light Rain 34 1.1 30 -1.1 85 85 N 13 20 29.99 1016 10 16 0.00 0.00
7:50 am 07:50 Cloudy with Light Rain 34 1 30 -1 87 87 N 9 15 30.11 1020 10 16 0.05 1.27
7:53 am 07:53 Cloudy with Light Rain 34 1.1 30 -1.1 85 85 N 12 19 30.03 1017 10 16 0.05 1.27
8:23 am 08:23 Cloudy with Light Wintry Mix 34 1.1 30 -1.1 85 85 NNE 15 24 30.09 1019 9 14 0.00 0.00
8:53 am 08:53 Cloudy 34 1.1 30 -1.1 85 85 N 9 15 30.05 1018 10 16 0.01 0.25
9:13 am 09:13 Cloudy 34 1.1 29 -1.7 82 82 N 15 24 30.13 1020 10 16 0.00 0.00
9:42 am 09:42 Cloudy with Light Rain 34 1.1 30 -1.1 85 85 N 9 15 30.14 1021 9 14 0.00 0.00
9:51 am 09:51 Cloudy with Light Rain 34 1 28 -2 81 81 N 12 19 30.16 1021 8 13 0.00 0.00
9:53 am 09:53 Cloudy with Light Rain 34 1.1 29 -1.7 82 82 N 8 13 30.10 1019 9 14 0.00 0.00
10:01 am 10:01 Cloudy with Light Freezing Rain 34 1.1 29 -1.7 82 82 N 9 15 30.16 1021 10 16 0.00 0.00
10:21 am 10:21 Cloudy 34 1.1 30 -1.1 85 85 NNE 9 15 30.15 1021 10 16 0.00 0.00
10:53 am 10:53 Cloudy 35 1.7 30 -1.1 82 82 NE 10 17 30.11 1020 10 16 0.00 0.00
11:53 am 11:53 Cloudy 37 2.8 32 0 82 82 N 10 17 30.14 1021 10 16 0.00 0.00
12:53 pm 12:53 Cloudy 39 3.9 33 0.6 79 79 N 7 11 30.13 1020 10 16 0.00 0.00
1:53 pm 13:53 Cloudy 41 5 33 0.6 73 73 N 9 15 30.13 1020 10 16 0.00 0.00
2:53 pm 14:53 Cloudy 42 5.6 33 0.6 71 71 VRB 5 7 30.12 1020 10 16 0.00 0.00
3:34 pm 15:34 Partly Cloudy 46 7.8 34 1.1 63 63 VRB 6 9 30.08 1019 10 16 0.00 0.00
3:53 pm 15:53 Mostly Sunny 48 8.9 35 1.7 61 61 VRB 5 7 30.09 1019 10 16 0.00 0.00
4:53 pm 16:53 Sunny 49 9.4 35 1.7 59 59 WNW 7 11 30.08 1019 10 16 0.00 0.00
5:53 pm 17:53 Sunny 49 9.4 34 1.1 56 56 Calm 30.09 1019 10 16 0.00 0.00
6:53 pm 18:53 Sunny 48 8.9 34 1.1 58 58 SW 3 6 30.11 1020 10 16 0.00 0.00
7:53 pm 19:53 Clear 41 5 33 0.6 73 73 SSE 5 7 30.14 1021 10 16 0.00 0.00
8:53 pm 20:53 Clear 37 2.8 32 0 82 82 SE 6 9 30.17 1022 10 16 0.00 0.00
9:53 pm 21:53 Clear 35 1.7 30 -1.1 82 82 ESE 8 13 30.20 1023 10 16 0.00 0.00
10:53 pm 22:53 Clear 31 -0.6 28 -2.2 89 89 ESE 6 9 30.21 1023 10 16 0.00 0.00
11:53 pm 23:53 Clear 33 0.6 30 -1.1 89 89 SE 9 15 30.22 1023 10 16 0.00 0.00

Powered by AerisWeather